Weather History for Eastsound, WA

Change the Weather History Date:

Saturday, March 1, 2014

  Actual Average (KBLI) Record (KBLI)
Temperature  
Mean Temperature 36 °F 42 °F  
Max Temperature 41 °F 50 °F 60 °F (1994)
Min Temperature 30 °F 34 °F 20 °F (1971)
Degree Days  
Heating Degree Days 30 23  
Month to date heating degree days 23  
Cooling Degree Days 0 0  
Month to date cooling degree days 0  
Year to date cooling degree days 0  
Moisture  
Dew Point 21 °F    
Average Humidity 60    
Maximum Humidity 93    
Minimum Humidity 33    
Precipitation  
Precipitation 0.04 in 0.11 in 0.59 in (1974)
Month to date precipitation 0.11  
Year to date precipitation 7.80  
Sea Level Pressure  
Sea Level Pressure 29.67 in    
Wind  
Wind Speed 10 mph (ENE)    
Max Wind Speed 14 mph    
Max Gust Speed 32 mph    
Visibility 4 miles    
Events Rain , Snow    
T = Trace of Precipitation, MM = Missing Value Source: NWS Daily Summary

Daily Weather History Graph

Daily Weather History Graph

Search for Another Location

Airport:

Trip Planner

Search our weather history database for the weather conditions in past years. The results will help you decide how hot, cold, wet, or windy it might be!

Date:

Astronomy

Mar. 01, 2014 Rise Set
Actual Time 6:53 AM PST 5:55 PM PST
Civil Twilight 6:21 AM PST 6:27 PM PST
Nautical Twilight 5:45 AM PST 7:03 PM PST
Astronomical Twilight 5:08 AM PST 7:40 PM PST
Moon 6:45 AM PST (3/1) 6:57 PM PST (3/1)
Length of Visible Light 12h 05m
Length of Day
11h 02m
New Moon, 0% of the Moon is Illuminated
Mar 1
New Moon
Mar 8
First Quarter
Mar 16
Full
Mar 23
Last Quarter
Mar 30
New

Hourly Weather History & Observations

Time (PST) Temp. Windchill Dew Point Humidity Pressure Visibility Wind Dir Wind Speed Gust Speed Precip Events Conditions
12:15 AM 41.0 °F 35.2 °F 17.6 °F 39% 29.60 in 7.0 mi ENE 9.2 mph 23.0 mph N/A   Mostly Cloudy
12:35 AM 41.0 °F 34.7 °F 15.8 °F 36% 29.60 in 7.0 mi NE 10.4 mph 19.6 mph N/A   Scattered Clouds
12:55 AM 41.0 °F 34.3 °F 15.8 °F 36% 29.60 in 7.0 mi ENE 11.5 mph 23.0 mph N/A   Partly Cloudy
1:15 AM 41.0 °F 34.7 °F 14.0 °F 33% 29.60 in 8.0 mi NE 10.4 mph 21.9 mph N/A   Scattered Clouds
1:35 AM 41.0 °F 35.2 °F 15.8 °F 36% 29.61 in 8.0 mi NE 9.2 mph 23.0 mph N/A   Overcast
1:55 AM 41.0 °F 34.3 °F 15.8 °F 36% 29.61 in 7.0 mi NE 11.5 mph 20.7 mph N/A   Mostly Cloudy
2:15 AM 41.0 °F 33.9 °F 15.8 °F 36% 29.61 in 7.0 mi ENE 12.7 mph 19.6 mph N/A   Mostly Cloudy
2:35 AM 39.2 °F 32.5 °F 14.0 °F 36% 29.61 in 8.0 mi NE 10.4 mph 20.7 mph N/A   Scattered Clouds
2:55 AM 39.2 °F 32.5 °F 14.0 °F 36% 29.61 in 8.0 mi NE 10.4 mph 20.7 mph N/A   Partly Cloudy
3:15 AM 39.2 °F 34.2 °F 15.8 °F 39% 29.61 in 7.0 mi NE 6.9 mph 21.9 mph N/A   Scattered Clouds
3:35 AM 39.2 °F 33.0 °F 15.8 °F 39% 29.61 in 7.0 mi ENE 9.2 mph 21.9 mph N/A   Partly Cloudy
3:55 AM 39.2 °F 33.0 °F 14.0 °F 36% 29.62 in 7.0 mi NE 9.2 mph 20.7 mph N/A   Mostly Cloudy
4:15 AM 39.2 °F 32.0 °F 14.0 °F 36% 29.62 in 7.0 mi NE 11.5 mph 19.6 mph N/A   Overcast
4:35 AM 39.2 °F 33.0 °F 14.0 °F 36% 29.62 in 7.0 mi NE 9.2 mph 20.7 mph N/A   Mostly Cloudy
4:55 AM 39.2 °F 31.6 °F 14.0 °F 36% 29.63 in 7.0 mi NE 12.7 mph 25.3 mph N/A   Mostly Cloudy
5:15 AM 39.2 °F 31.6 °F 14.0 °F 36% 29.63 in 7.0 mi NE 12.7 mph 24.2 mph N/A   Mostly Cloudy
5:35 AM 39.2 °F 31.2 °F 14.0 °F 36% 29.63 in 7.0 mi NE 13.8 mph 25.3 mph N/A   Mostly Cloudy
5:55 AM 37.4 °F 28.9 °F 14.0 °F 38% 29.63 in 7.0 mi NE 13.8 mph 32.2 mph N/A   Overcast
6:15 AM 37.4 °F 30.8 °F 15.8 °F 41% 29.64 in 7.0 mi NE 9.2 mph 19.6 mph N/A   Mostly Cloudy
6:35 AM 37.4 °F 30.8 °F 15.8 °F 41% 29.64 in 8.0 mi NE 9.2 mph 26.5 mph N/A   Scattered Clouds
6:55 AM 37.4 °F 30.8 °F 14.0 °F 38% 29.64 in 7.0 mi NNE 9.2 mph 19.6 mph N/A   Scattered Clouds
7:15 AM 37.4 °F 31.4 °F 15.8 °F 41% 29.65 in 7.0 mi ENE 8.1 mph 19.6 mph N/A   Partly Cloudy
7:35 AM 37.4 °F 29.8 °F 15.8 °F 41% 29.66 in 5.0 mi NE 11.5 mph 19.6 mph N/A   Haze
7:55 AM 37.4 °F 29.3 °F 15.8 °F 41% 29.66 in 5.0 mi NE 12.7 mph 20.7 mph N/A   Haze
8:15 AM 37.4 °F 31.4 °F 17.6 °F 45% 29.64 in 5.0 mi East 8.1 mph 20.7 mph N/A   Haze
8:35 AM 37.4 °F 30.3 °F 17.6 °F 45% 29.66 in 5.0 mi NE 10.4 mph 18.4 mph N/A   Haze
8:55 AM 37.4 °F 30.3 °F 17.6 °F 45% 29.67 in 5.0 mi East 10.4 mph 20.7 mph N/A   Haze
9:15 AM 37.4 °F 30.3 °F 15.8 °F 41% 29.68 in 5.0 mi ENE 10.4 mph 23.0 mph N/A   Haze
9:35 AM 37.4 °F 30.8 °F 17.6 °F 45% 29.68 in 5.0 mi ENE 9.2 mph 16.1 mph N/A   Haze
9:55 AM 37.4 °F 30.8 °F 17.6 °F 45% 29.68 in 5.0 mi ENE 9.2 mph 19.6 mph N/A   Haze
10:15 AM 37.4 °F 30.3 °F 19.4 °F 48% 29.68 in 5.0 mi ENE 10.4 mph 18.4 mph N/A   Haze
10:35 AM 37.4 °F 32.1 °F 19.4 °F 48% 29.69 in 4.0 mi NE 6.9 mph 18.4 mph N/A   Haze
10:55 AM 35.6 °F 29.2 °F 19.4 °F 52% 29.69 in 5.0 mi East 8.1 mph 17.3 mph N/A   Haze
11:15 AM 35.6 °F 29.2 °F 19.4 °F 52% 29.69 in 5.0 mi ENE 8.1 mph 16.1 mph N/A   Haze
11:35 AM 37.4 °F 30.8 °F 21.2 °F 52% 29.70 in 5.0 mi ENE 9.2 mph - N/A   Haze
11:55 AM 37.4 °F 30.8 °F 19.4 °F 48% 29.70 in 5.0 mi ENE 9.2 mph 16.1 mph N/A   Haze
12:15 PM 37.4 °F 29.8 °F 19.4 °F 48% 29.70 in 5.0 mi ENE 11.5 mph 18.4 mph N/A   Haze
12:35 PM 37.4 °F 30.3 °F 19.4 °F 48% 29.70 in 5.0 mi East 10.4 mph 21.9 mph N/A   Haze
12:55 PM 37.4 °F 31.4 °F 19.4 °F 48% 29.69 in 5.0 mi ENE 8.1 mph - N/A   Haze
1:15 PM 37.4 °F 30.3 °F 19.4 °F 48% 29.69 in 5.0 mi ENE 10.4 mph - N/A Rain Light Rain
1:35 PM 35.6 °F 29.9 °F 19.4 °F 52% 29.69 in 4.0 mi ENE 6.9 mph 18.4 mph N/A Rain Light Rain
1:55 PM 35.6 °F 28.6 °F 21.2 °F 56% 29.69 in 5.0 mi NE 9.2 mph 23.0 mph N/A Rain Light Rain
2:15 PM 35.6 °F 27.5 °F 23.0 °F 60% 29.70 in 7.0 mi ENE 11.5 mph 17.3 mph N/A   Scattered Clouds
2:35 PM 33.8 °F 27.0 °F 23.0 °F 65% 29.70 in 2.0 mi East 8.1 mph 20.7 mph N/A Snow Light Snow
2:55 PM 32.0 °F 23.6 °F 24.8 °F 75% 29.70 in 2.5 mi ENE 10.4 mph 20.7 mph N/A   Mostly Cloudy
3:15 PM 32.0 °F 23.6 °F 26.6 °F 80% 29.71 in 2.0 mi ENE 10.4 mph 21.9 mph N/A Snow Light Snow
3:35 PM 32.0 °F 26.4 °F 24.8 °F 75% 29.71 in 3.0 mi ENE 5.8 mph 21.9 mph N/A Snow Light Snow
3:55 PM 32.0 °F 23.6 °F 26.6 °F 80% 29.69 in 2.5 mi ENE 10.4 mph 20.7 mph N/A   Overcast
4:15 PM 32.0 °F 23.6 °F 26.6 °F 80% 29.70 in 1.2 mi ENE 10.4 mph 18.4 mph N/A Snow Light Snow
4:35 PM 32.0 °F 24.8 °F 28.4 °F 87% 29.70 in 0.8 mi ENE 8.1 mph 17.3 mph N/A Snow Light Snow
4:55 PM 32.0 °F 24.2 °F 28.4 °F 87% 29.70 in 0.5 mi ENE 9.2 mph - N/A Snow Snow
5:15 PM 32.0 °F 23.6 °F 28.4 °F 87% 29.69 in 0.8 mi ENE 10.4 mph 19.6 mph N/A Snow Light Snow
5:35 PM 32.0 °F 24.8 °F 28.4 °F 87% 29.69 in 0.5 mi NE 8.1 mph 18.4 mph 0.01 in Snow Snow
5:55 PM 30.2 °F 20.2 °F 28.4 °F 93% 29.69 in 0.5 mi ENE 12.7 mph 19.6 mph 0.01 in Snow Snow
6:15 PM 32.0 °F 23.6 °F 28.4 °F 87% 29.69 in 1.2 mi ENE 10.4 mph 19.6 mph 0.01 in Snow Light Snow
6:35 PM 30.2 °F 21.3 °F 28.4 °F 93% 29.69 in 1.5 mi ENE 10.4 mph 16.1 mph 0.01 in Snow Light Snow
6:55 PM 32.0 °F 24.2 °F 28.4 °F 87% 29.69 in 2.5 mi East 9.2 mph - 0.01 in   Overcast
7:15 PM 32.0 °F 23.6 °F 28.4 °F 87% 29.69 in 2.5 mi ENE 10.4 mph 16.1 mph N/A Snow Light Snow
7:35 PM 32.0 °F 24.8 °F 28.4 °F 87% 29.69 in 2.5 mi ENE 8.1 mph 18.4 mph N/A   Overcast
7:55 PM 32.0 °F 25.6 °F 28.4 °F 87% 29.69 in 4.0 mi East 6.9 mph 17.3 mph N/A   Overcast
8:15 PM 32.0 °F 23.6 °F 28.4 °F 87% 29.68 in 2.5 mi ENE 10.4 mph - N/A   Overcast
8:35 PM 32.0 °F 24.8 °F 28.4 °F 87% 29.69 in 3.0 mi ENE 8.1 mph - N/A   Overcast
8:55 PM 32.0 °F 23.6 °F 28.4 °F 87% 29.68 in 3.0 mi ENE 10.4 mph 16.1 mph 0.01 in   Overcast
9:15 PM 32.0 °F 23.0 °F 28.4 °F 87% 29.68 in 1.8 mi ENE 11.5 mph 17.3 mph N/A Snow Light Snow
9:35 PM 32.0 °F 25.6 °F 30.2 °F 93% 29.69 in 1.2 mi ENE 6.9 mph - 0.01 in Snow Light Snow
9:55 PM 32.0 °F 24.2 °F 30.2 °F 93% 29.69 in 1.5 mi ENE 9.2 mph - 0.01 in Snow Light Snow
10:15 PM 32.0 °F 24.2 °F 30.2 °F 93% 29.69 in 1.5 mi ENE 9.2 mph - N/A Snow Light Snow
10:35 PM 32.0 °F 24.2 °F 30.2 °F 93% 29.69 in 2.5 mi ENE 9.2 mph - N/A Snow Light Snow
10:55 PM 32.0 °F 24.8 °F 30.2 °F 93% 29.68 in 2.5 mi ENE 8.1 mph - N/A Snow Light Snow
11:15 PM 32.0 °F 25.6 °F 30.2 °F 93% 29.68 in 4.0 mi NE 6.9 mph - N/A Snow Light Snow
11:35 PM 32.0 °F 25.6 °F 30.2 °F 93% 29.68 in 3.0 mi ENE 6.9 mph - N/A Snow Light Snow
11:55 PM 32.0 °F 26.4 °F 30.2 °F 93% 29.68 in 4.0 mi ENE 5.8 mph - N/A Snow Light Snow